Theta_e
327 326 330 327 328 327 327 328 326 325 326 326 327 326 326 325 327 326 324 324 323 323 323 324 321 323 324 324 324 323 321 320 319 322 323 325 326 324 322 323 324 321 319
327 326 329 328 327 327 327 327 326 326 326 327 327 327 327 327 326 325 325 326 325 323 324 324 321 326 324 323 321 320 320 321 320 318 321 322 322 324 321 322 323 324 322
326 327 329 326 326 325 327 328 328 327 326 327 328 328 327 327 326 326 327 326 325 324 325 325 323 324 323 322 323 322 322 323 322 320 318 321 322 323 322 323 322 322 323
328 325 326 326 326 325 326 327 326 327 328 326 327 328 329 328 328 328 326 324 325 327 326 326 326 324 323 321 322 323 323 321 321 319 319 319 320 321 320 317 317 319 316
326 328 327 326 326 327 327 327 327 326 327 328 327 325 324 324 325 325 324 324 325 326 327 327 325 325 322 322 323 323 323 321 319 318 317 317 317 317 316 317 314 314 314
327 327 329 327 328 325 325 326 326 325 325 324 323 324 321 322 307 311 318 323 325 323 323 323 321 320 317 313 313 314 321 320 318 318 317 316 316 316 317 315 314 313 310
327 328 329 327 327 326 328 327 325 323 322 322 321 321 318 315 306 307 310 326 325 324 323 322 323 322 319 318 311 311 310 310 315 320 317 317 315 316 316 314 313 313 312
326 327 328 328 327 326 326 325 323 323 322 320 321 321 316 313 304 303 307 325 324 324 325 324 324 323 320 322 321 321 321 321 321 322 320 320 319 319 318 316 315 316 314
325 326 327 328 326 326 326 324 324 323 323 322 323 317 315 312 301 301 317 327 325 322 323 325 323 322 306 307 321 319 319 318 308 307 308 307 305 307 314 317 316 313 310
324 326 328 328 327 326 325 324 325 324 323 323 322 322 313 313 299 300 319 324 320 318 319 318 309 315 303 306 321 320 317 318 319 318 315 310 311 308 309 318 318 313 312
323 327 327 327 327 327 326 325 324 324 322 320 319 319 319 315 310 301 308 321 319 318 319 317 314 304 302 304 311 321 318 320 314 319 318 317 317 315 314 317 318 316 312
321 327 327 328 331 328 326 325 325 322 318 318 319 319 318 316 308 303 305 314 313 321 318 317 309 302 302 303 312 300 302 312 321 321 319 318 316 317 317 316 320 324 317
320 325 325 325 329 327 326 325 324 322 318 317 320 320 318 317 313 302 302 302 309 318 318 308 298 301 301 302 301 302 307 322 321 320 319 319 320 320 319 318 317 317 316
323 323 324 325 324 327 328 327 325 323 320 319 319 318 317 316 316 316 314 311 306 308 304 305 307 305 308 310 309 311 322 322 321 319 318 319 321 319 316 315 312 310 309
323 322 323 324 322 324 318 319 324 325 323 322 321 321 319 318 319 314 315 320 317 313 311 311 312 314 316 317 318 318 321 322 320 319 319 319 320 319 318 315 313 309 306
322 322 322 322 321 319 313 310 297 297 305 308 310 319 322 311 303 303 304 304 302 302 314 313 313 313 317 318 318 319 317 317 322 321 317 317 318 318 315 314 312 309 307
322 322 321 321 320 317 315 313 310 309 297 300 305 306 308 306 302 302 301 300 299 303 316 315 315 315 315 316 317 316 316 317 319 319 317 317 317 317 310 313 312 310 308
322 310 321 322 321 318 318 316 314 312 311 312 302 304 301 300 301 299 297 301 308 308 317 317 316 316 316 316 315 314 315 317 318 318 316 316 315 315 312 312 311 310 308
322 321 321 320 322 320 319 317 317 316 314 313 309 303 295 295 298 297 298 319 319 318 317 318 320 319 318 318 319 318 317 317 317 316 317 316 315 313 312 312 311 300 302
322 311 314 319 321 319 322 321 317 317 317 314 313 311 303 303 309 309 310 320 320 320 320 320 320 321 321 319 319 319 318 314 317 318 317 317 318 316 313 312 311 309 308
322 316 309 318 317 319 317 322 319 317 316 316 315 314 300 316 316 316 316 319 322 322 322 322 322 320 319 319 318 318 317 318 317 319 318 317 316 316 315 313 311 311 308
323 321 319 319 318 317 317 317 318 318 317 315 317 313 294 318 318 318 318 319 321 321 317 322 323 323 319 314 316 317 315 315 315 317 318 318 317 317 316 314 313 311 308
324 322 319 320 318 309 310 317 316 316 316 318 315 315 307 316 316 316 316 317 318 318 319 316 315 315 315 313 313 316 316 315 315 316 316 317 317 317 316 313 313 311 309
323 323 321 320 319 318 315 316 316 307 315 314 317 314 313 314 316 317 318 318 317 317 317 317 317 317 316 315 315 317 317 317 317 317 317 316 316 309 316 315 313 312 309
321 321 321 320 319 317 317 316 316 315 316 316 315 312 313 314 314 315 316 317 317 318 318 319 319 318 316 316 317 317 309 295 311 307 317 316 316 314 315 315 311 309 299
323 324 322 322 320 320 318 318 317 317 316 316 316 315 314 314 315 316 316 315 315 316 317 318 318 318 318 318 317 309 297 294 299 294 315 317 315 315 315 312 310 306 299
Wind_Speed
8 6 6 5 6 5 4 5 4 4 7 6 5 5 4 4 3 3 4 5 5 5 4 5 4 4 3 2 3 3 6 6 10 4 3 6 8 12 12 13 14 14 13
7 7 6 6 6 6 5 4 4 4 5 6 5 5 5 5 3 4 3 5 6 5 5 4 3 4 5 2 3 4 7 7 12 14 6 5 9 11 14 13 12 11 12
7 7 7 7 6 6 5 5 4 3 3 4 5 6 5 5 4 2 5 5 5 4 5 6 4 4 4 2 5 4 8 8 10 10 8 6 7 12 10 11 11 10 9
10 8 7 7 6 5 5 4 4 2 4 5 5 5 4 3 6 6 6 5 6 6 6 5 6 5 6 6 5 6 9 11 11 10 10 9 7 9 11 12 10 8 9
9 8 7 7 6 6 6 5 4 4 5 6 7 7 7 7 4 5 4 4 6 7 5 5 5 6 7 6 5 6 10 9 10 11 10 8 11 11 11 8 11 9 7
11 7 7 7 6 6 6 6 6 7 7 6 6 6 7 5 7 9 7 5 8 6 6 5 4 8 8 10 10 8 9 13 14 11 10 13 11 11 9 10 11 10 5
11 8 8 7 6 6 6 6 6 6 6 6 6 7 7 5 9 9 10 5 6 6 5 5 5 7 9 9 12 16 14 13 11 16 14 13 15 14 12 10 8 8 4
12 10 9 7 7 6 7 6 6 5 6 5 6 7 7 4 8 9 8 6 6 6 6 6 7 9 9 11 12 13 12 11 11 10 14 11 14 11 11 12 12 5 7
13 10 9 8 7 7 7 6 5 6 5 4 5 7 8 4 8 8 5 8 8 7 5 6 8 10 11 11 13 14 13 11 11 13 14 14 14 12 10 10 5 9 7
12 12 10 9 8 7 7 6 4 5 5 5 6 6 8 6 7 8 8 7 8 5 6 6 9 9 13 12 13 14 13 11 13 11 8 9 9 7 10 3 6 9 7
9 14 10 8 9 8 7 4 5 7 6 6 6 5 6 6 4 7 10 5 6 5 5 5 4 11 12 11 11 11 13 12 11 9 8 6 5 5 4 2 4 6 6
8 14 9 11 9 7 9 6 6 7 7 6 6 4 4 5 6 6 11 10 7 6 6 5 4 11 12 12 9 13 14 12 9 8 7 6 6 5 4 2 2 4 4
9 15 13 10 10 9 9 7 7 7 6 5 6 5 4 3 3 7 9 9 9 5 5 7 10 12 14 10 15 16 13 9 9 8 8 8 7 5 4 4 3 4 2
13 12 10 12 7 8 6 7 7 6 6 6 6 5 5 4 3 3 4 6 9 7 9 5 6 7 7 9 8 8 6 7 8 7 5 4 4 4 3 4 3 3 2
14 11 10 9 8 6 3 2 5 7 10 9 8 8 8 7 6 7 7 6 6 7 7 3 3 4 8 7 7 5 4 5 5 4 4 5 5 4 4 3 3 3 3
13 10 9 9 7 6 5 4 8 5 13 12 13 10 7 10 14 12 11 13 13 13 4 4 3 4 8 8 9 8 4 7 7 6 5 5 7 7 5 3 3 4 4
14 11 9 10 8 7 5 6 5 4 8 7 16 14 13 14 17 14 12 14 16 9 3 3 4 6 6 6 6 5 5 5 7 6 7 8 7 7 6 6 4 4 4
13 14 9 9 8 6 8 6 6 5 5 3 8 2 15 18 18 15 13 10 2 2 3 5 5 6 6 6 6 5 5 5 7 8 7 8 8 9 7 7 7 7 5
12 11 10 7 9 9 6 7 8 7 6 4 3 6 6 7 12 13 17 8 9 9 6 5 5 9 8 9 9 8 7 6 6 6 8 9 9 8 8 8 8 9 7
12 15 9 8 9 8 8 8 8 8 8 8 6 5 5 4 6 6 5 6 8 9 8 8 6 6 9 11 11 10 10 8 9 9 9 9 10 10 10 10 9 8 9
11 8 11 8 7 9 7 9 7 10 9 9 9 9 13 12 10 9 9 8 9 10 10 9 7 6 5 7 10 11 11 11 11 10 10 9 8 10 10 8 8 10 7
12 10 10 8 6 8 9 7 8 9 11 11 9 9 15 11 10 10 10 10 10 8 6 8 9 8 7 6 7 9 9 9 9 9 10 10 10 9 8 8 8 7 6
13 13 11 10 8 7 6 9 8 9 10 12 11 11 12 12 11 11 12 12 11 11 10 7 6 7 7 7 7 8 10 10 9 9 9 9 9 9 9 8 8 7 6
11 14 13 12 10 11 6 9 8 10 10 9 12 12 14 14 14 15 13 12 12 13 12 12 12 11 9 8 7 10 10 9 9 11 14 10 10 8 10 9 7 8 6
4 5 9 11 11 10 10 7 9 9 9 9 7 10 13 13 14 13 13 12 12 12 14 14 13 16 18 17 15 12 11 11 13 11 10 10 12 13 12 10 7 5 5
5 4 2 6 11 11 11 10 10 10 10 9 8 9 12 13 14 14 13 13 13 13 14 13 16 20 19 16 18 18 11 11 11 12 11 11 11 10 10 10 12 6 11
Wind_Direction
141 170 154 160 125 119 126 138 162 137 154 153 166 155 132 138 159 145 133 148 127 105 86 88 69 55 51 125 130 132 124 118 123 100 103 112 117 122 124 127 121 123 130
157 152 155 125 123 126 128 144 167 151 163 161 158 147 138 139 141 139 141 151 147 146 141 114 83 45 79 91 115 115 125 126 134 126 123 126 124 127 129 136 131 129 132
144 148 126 130 130 138 152 166 167 174 162 165 145 139 135 136 142 110 111 99 102 136 147 145 143 131 88 96 77 98 124 127 132 129 123 116 115 130 117 111 106 106 111
147 141 135 138 143 143 133 143 145 156 175 141 136 144 124 103 94 91 94 113 108 84 88 94 133 119 118 99 96 106 126 126 129 128 126 131 128 127 116 118 108 98 98
138 138 140 147 149 150 152 133 108 87 103 119 100 88 91 84 76 90 107 121 111 101 88 93 90 125 118 116 126 127 133 133 134 134 132 129 127 122 120 113 108 109 84
138 137 139 138 146 145 134 123 104 90 84 84 85 85 82 77 74 57 39 97 113 111 112 105 105 113 104 97 88 92 134 140 138 136 135 136 118 122 125 126 126 126 119
141 141 136 144 147 144 139 123 117 118 113 109 100 97 93 81 63 46 30 104 112 120 130 117 93 105 106 103 88 82 78 89 124 140 131 133 129 138 133 131 134 135 127
147 147 148 158 142 134 120 126 123 123 126 124 103 108 102 80 57 34 20 97 92 87 97 112 106 110 117 114 104 96 90 93 111 124 129 134 133 140 143 150 151 115 96
157 159 160 146 140 140 134 141 136 124 119 102 108 118 116 95 51 31 89 87 85 70 66 83 103 112 122 120 112 106 95 84 64 89 110 119 128 132 137 141 154 136 139
155 164 159 146 146 145 147 150 137 131 119 112 108 118 125 114 57 42 106 109 99 94 80 77 88 122 125 125 127 125 120 124 120 115 101 81 94 99 122 126 146 144 149
167 150 148 137 138 141 136 131 123 126 128 127 113 109 127 122 81 68 118 117 124 114 105 106 108 125 128 124 127 135 134 137 127 126 117 119 110 132 189 132 106 142 156
152 146 132 141 140 136 134 136 124 121 117 123 130 108 112 124 125 64 132 124 132 114 121 119 117 126 128 119 109 119 115 121 131 124 135 145 161 177 207 178 228 193 212
126 137 143 140 137 144 142 143 132 130 137 144 148 143 135 116 90 83 92 130 133 108 126 130 134 136 132 100 134 133 137 142 146 156 163 170 180 177 143 120 100 119 138
133 142 132 136 131 144 153 152 148 153 154 160 155 151 148 138 134 144 109 107 97 83 99 112 127 111 124 125 128 143 148 152 156 159 165 162 158 145 139 157 166 146 99
143 146 138 145 148 149 88 147 171 181 171 173 166 162 160 165 177 166 151 130 129 132 116 117 107 103 122 138 153 172 157 164 161 167 163 169 176 162 177 163 150 162 164
147 153 145 154 163 133 130 103 48 10 187 175 150 156 165 155 155 163 160 137 138 149 128 142 126 134 150 158 169 186 185 182 191 185 173 170 181 181 166 169 154 167 172
155 158 152 156 166 148 153 136 125 36 66 133 157 155 157 158 161 169 164 150 161 145 131 165 153 162 169 175 180 185 194 196 177 186 179 180 181 181 173 191 185 181 195
157 160 161 164 166 170 160 159 146 142 128 124 49 153 159 157 163 167 157 118 126 292 173 177 177 170 176 183 187 195 208 192 178 183 177 182 184 185 187 203 200 203 194
157 168 168 161 177 175 167 159 159 158 153 144 105 58 47 105 156 160 164 173 179 198 207 200 186 186 190 193 194 200 201 202 192 181 189 191 195 189 201 207 201 199 194
168 169 161 171 183 185 178 170 171 170 164 164 166 164 133 111 165 182 203 176 184 201 213 217 214 196 195 198 199 199 203 201 203 205 204 196 202 198 203 202 199 196 208
174 166 175 172 174 192 183 185 172 176 176 175 182 173 171 177 185 190 196 204 199 201 208 217 214 211 205 207 202 200 201 203 205 204 208 208 194 200 209 196 196 208 192
171 169 183 186 186 184 192 182 184 173 184 181 181 179 177 188 189 194 199 206 213 213 208 211 220 225 216 197 200 209 204 203 199 195 201 208 207 204 198 203 202 204 197
169 176 180 188 192 189 189 194 186 187 178 189 183 173 181 200 199 202 204 203 206 213 219 216 212 221 222 208 197 194 205 212 207 194 197 202 203 203 201 200 198 201 194
183 180 182 189 190 200 190 199 193 192 192 183 187 176 187 198 204 206 206 205 204 212 214 219 225 221 223 224 219 224 214 200 196 198 195 200 201 195 205 209 200 202 192
9 210 188 193 198 201 202 193 201 193 198 196 184 176 190 198 203 209 208 207 207 208 212 214 218 225 225 227 228 210 208 209 212 201 197 198 198 196 204 206 186 170 133
333 -0 282 199 197 201 205 202 200 196 195 202 196 180 188 195 203 207 208 209 211 213 213 214 220 220 223 227 228 230 218 207 211 213 204 201 199 204 204 198 200 174 155